Dillon, MT

5:47 PM MDT on July 27, 2017 (GMT -0600)
Dillon

Weather History for KDLN - March, 2014

Change the Weather History Date:

Monday, March 17, 2014

  Actual Average Record
Temperature  
Mean Temperature 38 °F 35 °F  
Max Temperature 48 °F 47 °F 68 °F (2007)
Min Temperature 28 °F 23 °F -7 °F (1958)
Degree Days  
Heating Degree Days 27    
Month to date heating degree days 495  
Since 1 July heating degree days 6275  
Cooling Degree Days 0    
Month to date cooling degree days 0  
Year to date cooling degree days 0  
Moisture  
Dew Point 18 °F    
Average Humidity 53    
Maximum Humidity 75    
Minimum Humidity 31    
Precipitation  
Precipitation T in 0.02 in 0.70 in (1968)
Month to date precipitation 0.23 0.25  
Year to date precipitation 0.46 0.77  
Snow  
Snow 0.00 in - - ()
Snow Depth 0.00 in    
Sea Level Pressure  
Sea Level Pressure 29.59 in    
Wind  
Wind Speed 12 mph (WNW)    
Max Wind Speed 31 mph    
Max Gust Speed 38 mph    
Visibility 10 miles    
Events      
T = Trace of Precipitation, MM = Missing Value Source: NWS Daily Summary

Daily Weather History Graph

Daily Weather History Graph

Search for Another Location

Airport or City:

Trip Planner

Search our weather history database for the weather conditions in past years. The results will help you decide how hot, cold, wet, or windy it might be!

Date:

Astronomy

Mar. 17, 2014 Rise Set
Actual Time 7:38 AM MDT 7:38 PM MDT
Civil Twilight 7:09 AM MDT 8:08 PM MDT
Nautical Twilight 6:35 AM MDT 8:42 PM MDT
Astronomical Twilight 6:00 AM MDT 9:18 PM MDT
Moon 9:04 PM MDT (3/17) 7:52 AM MDT (3/17)
Length of Visible Light 12h 58m
Length of Day
12h 00m
Full, 99% of the Moon is Illuminated
Mar 17
Full
Mar 23
Last Quarter
Mar 30
New
Apr 7
First Quarter
Apr 15
Full

Hourly Weather History & Observations

Time (MDT) Temp. Windchill Dew Point Humidity Pressure Visibility Wind Dir Wind Speed Gust Speed Precip Events Conditions
12:53 AM 43.0 °F - 15.1 °F 32% 29.61 in 10.0 mi Calm Calm - N/A   Clear
1:53 AM 44.1 °F 38.6 °F 16.0 °F 32% 29.53 in 10.0 mi SSW 10.4 mph - N/A   Clear
2:53 AM 46.0 °F 40.6 °F 17.1 °F 31% 29.47 in 10.0 mi South 11.5 mph - N/A   Clear
3:53 AM 46.0 °F 39.9 °F 18.0 °F 33% 29.41 in 10.0 mi South 13.8 mph - N/A   Clear
4:53 AM 43.0 °F 37.7 °F 19.9 °F 40% 29.39 in 10.0 mi South 9.2 mph - N/A   Mostly Cloudy
5:53 AM 46.9 °F - 18.0 °F 32% 29.33 in 10.0 mi SW 18.4 mph - N/A   Partly Cloudy
6:53 AM 46.0 °F 37.0 °F 19.0 °F 34% 29.33 in 10.0 mi West 27.6 mph 38.0 mph N/A   Overcast
7:53 AM 39.0 °F 31.4 °F 28.0 °F 65% 29.39 in 10.0 mi NW 12.7 mph - N/A   Overcast
8:53 AM 37.0 °F 28.9 °F 28.9 °F 73% 29.42 in 10.0 mi WSW 12.7 mph 24.2 mph N/A   Overcast
9:02 AM 37.0 °F 29.8 °F 30.0 °F 76% 29.43 in 10.0 mi SSW 10.4 mph - N/A   Overcast
9:53 AM 36.0 °F 27.5 °F 28.9 °F 76% 29.42 in 10.0 mi WNW 12.7 mph - N/A   Overcast
10:53 AM 36.0 °F 27.1 °F 24.1 °F 62% 29.45 in 10.0 mi WNW 13.8 mph 23.0 mph 0.00 in   Overcast
11:53 AM 37.0 °F 33.3 °F 25.0 °F 62% 29.50 in 10.0 mi Variable 4.6 mph - N/A   Overcast
12:53 PM 39.0 °F 30.6 °F 16.0 °F 39% 29.53 in 10.0 mi NW 15.0 mph 28.8 mph N/A   Overcast
1:53 PM 37.9 °F 27.9 °F 14.0 °F 38% 29.57 in 10.0 mi NW 19.6 mph 31.1 mph N/A   Overcast
2:53 PM 37.0 °F 26.4 °F 14.0 °F 39% 29.60 in 10.0 mi WNW 20.7 mph 29.9 mph N/A   Overcast
3:53 PM 37.0 °F 26.7 °F 14.0 °F 39% 29.63 in 10.0 mi NW 19.6 mph 28.8 mph N/A   Overcast
4:53 PM 37.0 °F 28.1 °F 12.9 °F 37% 29.69 in 10.0 mi WNW 15.0 mph 29.9 mph N/A   Overcast
5:53 PM 35.1 °F 25.9 °F 12.0 °F 39% 29.73 in 10.0 mi NW 13.8 mph 25.3 mph N/A   Overcast
6:53 PM 35.1 °F 26.9 °F 12.0 °F 39% 29.77 in 10.0 mi NNW 11.5 mph - N/A   Overcast
7:53 PM 33.1 °F 23.9 °F 12.0 °F 42% 29.84 in 10.0 mi NNW 12.7 mph - N/A   Overcast
8:53 PM 32.0 °F 26.4 °F 12.0 °F 44% 29.89 in 10.0 mi North 5.8 mph - N/A   Overcast
9:53 PM 30.9 °F 27.5 °F 18.0 °F 59% 29.93 in 10.0 mi Variable 3.5 mph - N/A   Overcast
10:53 PM 30.9 °F 27.5 °F 18.0 °F 59% 29.95 in 10.0 mi ENE 3.5 mph - N/A   Overcast
11:53 PM 28.9 °F 22.8 °F 16.0 °F 58% 29.98 in 10.0 mi North 5.8 mph - N/A   Overcast